This is the latest recevied weather packets stored in our database for station/object N4HAC. If no packets are shown the sender has not sent any weather packets the latest 10 day(s).
| Time | Temp. | Humidity | Pressure | Rain* | Wind** | Luminosity | Snow |
|---|---|---|---|---|---|---|---|
| 1777665266 | 17.78° C | 39% | 1005.3 hPa | 0 mm | - | 593 W/m² | - |
| 1777664961 | 17.78° C | 39% | 1005.2 hPa | 0 mm | - | 611 W/m² | - |
| 1777664658 | 17.78° C | 39% | 1005.5 hPa | 0 mm | - | 627 W/m² | - |
| 1777664354 | 18.33° C | 38% | 1005.6 hPa | 0 mm | - | 643 W/m² | - |
| 1777664052 | 18.33° C | 39% | 1005.5 hPa | 0 mm | - | 541 W/m² | - |
| 1777663750 | 18.33° C | 41% | 1005.8 hPa | 0 mm | - | 558 W/m² | - |
| 1777663447 | 18.33° C | 45% | 1005.9 hPa | 0 mm | - | 681 W/m² | - |
| 1777663144 | 17.78° C | 40% | 1005.9 hPa | 0 mm | - | 697 W/m² | - |
| 1777662841 | 18.33° C | 41% | 1006.1 hPa | 0 mm | - | 712 W/m² | - |
| 1777662538 | 18.33° C | 40% | 1006 hPa | 0 mm | - | 725 W/m² | - |
| 1777662234 | 18.33° C | 39% | 1006.2 hPa | 0 mm | - | 738 W/m² | - |
| 1777661929 | 17.78° C | 41% | 1006.2 hPa | 0 mm | - | 51 W/m² | - |
| 1777661625 | 17.78° C | 43% | 1006.4 hPa | 0 mm | - | 759 W/m² | - |
| 1777661321 | 17.78° C | 40% | 1006.5 hPa | 0 mm | - | 765 W/m² | - |
| 1777661017 | 18.33° C | 39% | 1006.6 hPa | 0 mm | - | 770 W/m² | - |
| 1777660713 | 17.78° C | 40% | 1006.5 hPa | 0 mm | - | 781 W/m² | - |
| 1777660410 | 17.78° C | 42% | 1006.6 hPa | 0 mm | - | 788 W/m² | - |
| 1777660106 | 16.67° C | 41% | 1006.6 hPa | 0 mm | - | 794 W/m² | - |
| 1777659804 | 17.78° C | 41% | 1006.8 hPa | 0 mm | - | 799 W/m² | - |
| 1777659500 | 17.78° C | 44% | 1006.7 hPa | 0 mm | - | 804 W/m² | - |
| 1777659197 | 17.22° C | 43% | 1007 hPa | 0 mm | - | 809 W/m² | - |
| 1777658895 | 17.22° C | 44% | 1006.8 hPa | 0 mm | - | 817 W/m² | - |
| 1777658590 | 17.22° C | 45% | 1007 hPa | 0 mm | - | 817 W/m² | - |
| 1777658288 | 16.67° C | 41% | 1007.1 hPa | 0 mm | - | 825 W/m² | - |
| 1777657985 | 17.22° C | 43% | 1007.2 hPa | 0 mm | - | 830 W/m² | - |
* Rain latest hour (hover to see other rain measurements)
** Current wind speed in m/s (hover to see current wind gust speed)